K7JKM Weather Reports


Display with metric or nautical units.
time (UTC)temp
F
wind
direction
speed
MPH
gust
MPH
rain 1hr
in
rain 24hr
in
rain mn
in
humidity
%
barometer
mb
20260504011503 90 302 0.0 3.0 0.00 0.00 0.00 20 1006.9
20260504010003 92 287 0.0 1.0 0.00 0.00 0.00 18 1007.1
20260504004506 91 283 1.0 6.0 0.00 0.00 0.00 18 1007.2
20260504003004 91 287 0.0 4.0 0.00 0.00 0.00 18 1007.3
20260504001503 91 290 0.0 5.0 0.00 0.00 0.00 19 1007.4
20260504000005 91 302 1.0 6.0 0.00 0.00 0.00 19 1007.3
20260503234503 91 26 0.0 3.0 0.00 0.00 0.00 21 1007.3
20260503233002 91 330 0.0 2.0 0.00 0.00 0.00 19 1007.5
20260503231504 91 310 0.0 2.0 0.00 0.00 0.00 18 1007.7
20260503230004 90 206 0.0 3.0 0.00 0.00 0.00 22 1008.0
20260503224504 91 80 0.0 3.0 0.00 0.00 0.00 21 1008.3
20260503223005 90 311 0.0 2.0 0.00 0.00 0.00 20 1008.4
20260503221506 90 302 0.0 1.0 0.00 0.00 0.00 24 1008.6
20260503220006 89 293 0.0 2.0 0.00 0.00 0.00 25 1008.9
20260503214518 88 59 0.0 2.0 0.00 0.00 0.00 27 1009.1
20260503213004 87 315 0.0 5.0 0.00 0.00 0.00 27 1009.3
20260503211509 87 297 0.0 2.0 0.00 0.00 0.00 29 1009.6
20260503210024 85 172 0.0 3.0 0.00 0.00 0.00 32 1009.6
20260503204510 85 66 0.0 1.0 0.00 0.00 0.00 32 1009.8
20260503203014 83 297 0.0 5.0 0.00 0.00 0.00 33 1009.9
20260503201508 84 51 0.0 1.0 0.00 0.00 0.00 34 1010.0
20260503200007 82 340 0.0 1.0 0.00 0.00 0.00 37 1010.2
20260503194512 80 41 0.0 2.0 0.00 0.00 0.00 38 1010.5
20260503193014 78 291 0.0 2.0 0.00 0.00 0.00 42 1010.9
20260503191510 78 307 0.0 2.0 0.00 0.00 0.00 42 1011.0
20260503190012 78 314 0.0 1.0 0.00 0.00 0.00 41 1011.2
20260503184520 77 141 0.0 1.0 0.00 0.00 0.00 44 1011.3
20260503183009 76 61 0.0 1.0 0.00 0.00 0.00 45 1011.5
20260503181514 75 92 0.0 1.0 0.00 0.00 0.00 48 1011.5
20260503180014 73 147 0.0 1.0 0.00 0.00 0.00 53 1011.7
20260503174517 71 70 0.0 2.0 0.00 0.00 0.00 56 1011.9
20260503173016 69 287 0.0 2.0 0.00 0.00 0.00 60 1011.9
20260503171516 68 82 0.0 0.0 0.00 0.00 0.00 63 1011.9
20260503081525 53 335 0.0 0.0 0.00 0.00 0.00 70 1012.9
20260503071536 56 335 0.0 0.0 0.00 0.00 0.00 68 1013.0
20260503054526 57 92 0.0 0.0 0.00 0.00 0.00 67 1013.1
20260503053028 57 92 0.0 0.0 0.00 0.00 0.00 66 1013.1
20260503051527 58 92 0.0 0.0 0.00 0.00 0.00 66 1013.1
20260503050024 59 92 0.0 0.0 0.00 0.00 0.00 65 1013.0
20260503044537 60 92 0.0 0.0 0.00 0.00 0.00 65 1012.9
20260503043022 60 92 0.0 0.0 0.00 0.00 0.00 65 1012.8
20260503041520 61 92 0.0 0.0 0.00 0.00 0.00 64 1012.9
20260503040006 61 68 0.0 0.0 0.00 0.00 0.00 63 1012.8
20260503034503 62 68 0.0 0.0 0.00 0.00 0.00 62 1012.5
20260503033011 63 67 0.0 0.0 0.00 0.00 0.00 61 1012.2
20260503031509 63 22 0.0 0.0 0.00 0.00 0.00 60 1012.1
20260503030014 64 22 0.0 0.0 0.00 0.00 0.00 59 1012.1
20260503024505 64 23 0.0 1.0 0.00 0.00 0.00 58 1011.8
20260503023003 64 302 0.0 0.0 0.00 0.00 0.00 57 1011.8
20260503021503 65 122 0.0 0.0 0.00 0.00 0.00 56 1012.2
20260503020003 65 117 0.0 1.0 0.00 0.00 0.00 56 1012.8
20260503014516 66 109 0.0 11.0 0.00 0.00 0.00 56 1013.2
20260503013022 67 110 0.0 1.0 0.00 0.00 0.00 53 1013.3